Madison, MN

10:26 AM CDT on April 27, 2017 (GMT -0500)
Madison-Lac Qui Parle County

Weather History for KDXX - May, 2012

Change the Weather History Date:

Tuesday, May 29, 2012

  Actual Average (KAQP) Record (KAQP)
Temperature  
Mean Temperature 56 °F -  
Max Temperature 62 °F 69 °F 89 °F (1999)
Min Temperature 51 °F 48 °F 44 °F (2005)
Degree Days  
Heating Degree Days 8    
Growing Degree Days 6 (Base 50)    
Moisture  
Dew Point 46 °F    
Average Humidity 67    
Maximum Humidity 88    
Minimum Humidity 59    
Precipitation  
Precipitation 0.00 in - - ()
Sea Level Pressure  
Sea Level Pressure 29.89 in    
Wind  
Wind Speed 14 mph (WNW)    
Max Wind Speed 23 mph    
Max Gust Speed 30 mph    
Visibility 10 miles    
Events Rain    
Averages and records for this station are not official NWS values.
T = Trace of Precipitation, MM = Missing Value Source: NWS Daily Summary

Daily Weather History Graph

Daily Weather History Graph

Search for Another Location

Airport or City:

Trip Planner

Search our weather history database for the weather conditions in past years. The results will help you decide how hot, cold, wet, or windy it might be!

Date:

Astronomy

May. 29, 2012 Rise Set
Actual Time 5:42 AM CDT 9:02 PM CDT
Civil Twilight 5:06 AM CDT 9:38 PM CDT
Nautical Twilight 4:19 AM CDT 10:25 PM CDT
Astronomical Twilight 3:21 AM CDT 11:24 PM CDT
Moon 2:18 PM CDT (5/29) 1:53 AM CDT (5/29)
Length of Visible Light 16h 31m
Length of Day
15h 19m
First Quarter, 59% of the Moon is Illuminated
May 29
First Quarter
Jun 4
Full
Jun 11
Last Quarter
Jun 19
New
Jun 26
First Quarter

Hourly Weather History & Observations

Time (CDT) Temp. Dew Point Humidity Pressure Visibility Wind Dir Wind Speed Gust Speed Precip Events Conditions
12:13 AM 55.4 °F 44.6 °F 67% 29.77 in 10.0 mi WSW 9.2 mph - N/A   Clear
12:33 AM 57.2 °F 42.8 °F 59% 29.77 in 10.0 mi WSW 10.4 mph - N/A   Clear
12:54 AM 57.2 °F 42.8 °F 59% 29.77 in 10.0 mi WSW 10.4 mph - N/A   Clear
1:13 AM 57.2 °F 42.8 °F 59% 29.77 in 10.0 mi WSW 9.2 mph - N/A   Clear
1:33 AM 55.4 °F 42.8 °F 63% 29.77 in 10.0 mi WSW 10.4 mph - N/A   Clear
1:53 AM 55.4 °F 44.6 °F 67% 29.77 in 10.0 mi West 11.5 mph - N/A   Clear
2:12 AM 55.4 °F 42.8 °F 63% 29.77 in 10.0 mi West 13.8 mph 18.4 mph N/A   Clear
2:33 AM 55.4 °F 42.8 °F 63% 29.77 in 10.0 mi West 11.5 mph 20.7 mph N/A   Clear
2:53 AM 55.4 °F 44.6 °F 67% 29.77 in 10.0 mi West 11.5 mph 19.6 mph N/A   Clear
3:14 AM 53.6 °F 44.6 °F 72% 29.77 in 10.0 mi West 13.8 mph - N/A   Clear
3:33 AM 53.6 °F 44.6 °F 72% 29.77 in 10.0 mi West 15.0 mph 20.7 mph N/A   Clear
3:53 AM 53.6 °F 44.6 °F 72% 29.78 in 10.0 mi West 17.3 mph 24.2 mph N/A   Clear
4:13 AM 55.4 °F 44.6 °F 67% 29.78 in 10.0 mi West 19.6 mph 25.3 mph N/A   Clear
4:33 AM 55.4 °F 44.6 °F 67% 29.79 in 10.0 mi West 16.1 mph 21.9 mph N/A   Scattered Clouds
4:53 AM 55.4 °F 44.6 °F 67% 29.79 in 10.0 mi West 16.1 mph 24.2 mph N/A   Scattered Clouds
5:14 AM 53.6 °F 44.6 °F 72% 29.80 in 10.0 mi West 17.3 mph - N/A   Clear
5:33 AM 53.6 °F 44.6 °F 72% 29.80 in 10.0 mi West 19.6 mph 23.0 mph N/A   Clear
5:53 AM 53.6 °F 46.4 °F 77% 29.80 in 10.0 mi West 17.3 mph 23.0 mph N/A   Clear
6:14 AM 53.6 °F 46.4 °F 77% 29.81 in 10.0 mi West 18.4 mph 24.2 mph N/A   Clear
6:33 AM 55.4 °F 46.4 °F 72% 29.82 in 10.0 mi West 15.0 mph 23.0 mph N/A   Mostly Cloudy
6:53 AM 55.4 °F 46.4 °F 72% 29.82 in 10.0 mi West 16.1 mph - N/A   Overcast
7:14 AM 57.2 °F 46.4 °F 67% 29.83 in 10.0 mi West 16.1 mph 20.7 mph N/A   Overcast
7:34 AM 57.2 °F 46.4 °F 67% 29.84 in 10.0 mi West 21.9 mph 27.6 mph N/A   Overcast
7:53 AM 57.2 °F 46.4 °F 67% 29.84 in 10.0 mi West 17.3 mph 23.0 mph N/A   Overcast
8:13 AM 57.2 °F 48.2 °F 72% 29.84 in 10.0 mi West 18.4 mph 25.3 mph N/A   Mostly Cloudy
8:34 AM 59.0 °F 48.2 °F 67% 29.85 in 10.0 mi West 19.6 mph 25.3 mph N/A   Mostly Cloudy
8:53 AM 59.0 °F 46.4 °F 63% 29.86 in 10.0 mi WNW 19.6 mph 25.3 mph N/A   Mostly Cloudy
9:13 AM 59.0 °F 46.4 °F 63% 29.87 in 10.0 mi WNW 19.6 mph 28.8 mph N/A   Overcast
9:33 AM 59.0 °F 46.4 °F 63% 29.88 in 10.0 mi WNW 17.3 mph 25.3 mph N/A   Overcast
9:53 AM 57.2 °F 46.4 °F 67% 29.88 in 10.0 mi West 13.8 mph - N/A   Overcast
10:14 AM 57.2 °F 46.4 °F 67% 29.89 in 10.0 mi West 16.1 mph 23.0 mph N/A   Overcast
10:33 AM 59.0 °F 46.4 °F 63% 29.89 in 10.0 mi WNW 20.7 mph 26.5 mph N/A   Overcast
10:54 AM 60.8 °F 46.4 °F 59% 29.88 in 10.0 mi WNW 18.4 mph 24.2 mph N/A   Mostly Cloudy
11:13 AM 60.8 °F 46.4 °F 59% 29.89 in 10.0 mi West 20.7 mph 26.5 mph N/A   Mostly Cloudy
11:33 AM 60.8 °F 46.4 °F 59% 29.89 in 10.0 mi West 17.3 mph 24.2 mph N/A   Overcast
11:54 AM 60.8 °F 48.2 °F 63% 29.89 in 10.0 mi West 17.3 mph 21.9 mph N/A   Overcast
12:13 PM 62.6 °F 48.2 °F 59% 29.89 in 10.0 mi WNW 17.3 mph - N/A   Mostly Cloudy
12:34 PM 62.6 °F 48.2 °F 59% 29.89 in 10.0 mi WNW 21.9 mph - N/A   Scattered Clouds
12:53 PM 62.6 °F 48.2 °F 59% 29.90 in 10.0 mi WNW 23.0 mph 27.6 mph N/A   Scattered Clouds
1:13 PM 59.0 °F 51.8 °F 77% 29.91 in 10.0 mi NNW 18.4 mph 29.9 mph N/A   Mostly Cloudy
1:33 PM 55.4 °F 51.8 °F 88% 29.91 in 3.0 mi NW 13.8 mph 24.2 mph N/A Rain Rain
1:53 PM 57.2 °F 53.6 °F 88% 29.92 in 7.0 mi NW 12.7 mph 17.3 mph N/A Rain Light Rain
2:13 PM 59.0 °F 53.6 °F 82% 29.92 in 10.0 mi NNW 16.1 mph 21.9 mph N/A Rain Light Rain
2:34 PM 59.0 °F 51.8 °F 77% 29.92 in 10.0 mi WNW 10.4 mph - N/A   Mostly Cloudy
2:53 PM 60.8 °F 51.8 °F 72% 29.92 in 10.0 mi WNW 15.0 mph 20.7 mph N/A   Scattered Clouds
3:13 PM 60.8 °F 50.0 °F 68% 29.92 in 10.0 mi WNW 19.6 mph - N/A   Scattered Clouds
3:34 PM 55.4 °F 50.0 °F 82% 29.94 in 10.0 mi NNW 10.4 mph 15.0 mph N/A Rain Light Rain
3:53 PM 57.2 °F 48.2 °F 72% 29.94 in 10.0 mi NW 15.0 mph 23.0 mph N/A   Overcast
4:13 PM 57.2 °F 46.4 °F 67% 29.95 in 10.0 mi NW 17.3 mph 23.0 mph N/A   Overcast
4:34 PM 59.0 °F 46.4 °F 63% 29.95 in 10.0 mi NNW 19.6 mph - N/A   Overcast
4:53 PM 59.0 °F 46.4 °F 63% 29.94 in 10.0 mi NW 16.1 mph 21.9 mph N/A   Mostly Cloudy
5:13 PM 60.8 °F 46.4 °F 59% 29.95 in 10.0 mi NW 19.6 mph 25.3 mph N/A   Overcast
5:53 PM 59.0 °F 44.6 °F 59% 29.95 in 10.0 mi NNW 17.3 mph 21.9 mph N/A   Mostly Cloudy
6:13 PM 57.2 °F 44.6 °F 63% 29.95 in 10.0 mi NNW 16.1 mph 20.7 mph N/A   Mostly Cloudy
6:34 PM 59.0 °F 44.6 °F 59% 29.95 in 10.0 mi NNW 18.4 mph 23.0 mph N/A   Overcast
6:53 PM 57.2 °F 42.8 °F 59% 29.96 in 10.0 mi NW 16.1 mph 23.0 mph N/A   Overcast
7:13 PM 57.2 °F 42.8 °F 59% 29.96 in 10.0 mi NNW 16.1 mph 20.7 mph N/A   Overcast
7:34 PM 57.2 °F 42.8 °F 59% 29.97 in 10.0 mi NW 15.0 mph - N/A   Overcast
7:54 PM 55.4 °F 42.8 °F 63% 29.97 in 10.0 mi NW 13.8 mph 18.4 mph N/A   Overcast
8:13 PM 55.4 °F 42.8 °F 63% 29.97 in 10.0 mi NW 11.5 mph 18.4 mph N/A   Overcast
8:34 PM 55.4 °F 42.8 °F 63% 29.98 in 10.0 mi NW 10.4 mph - N/A   Overcast
8:53 PM 53.6 °F 42.8 °F 67% 29.98 in 10.0 mi WNW 9.2 mph - N/A   Mostly Cloudy
9:13 PM 55.4 °F 44.6 °F 67% 29.98 in 10.0 mi WNW 9.2 mph - N/A   Mostly Cloudy
9:34 PM 55.4 °F 44.6 °F 67% 29.99 in 10.0 mi NW 9.2 mph - N/A   Overcast
9:53 PM 55.4 °F 42.8 °F 63% 29.99 in 10.0 mi NW 11.5 mph 16.1 mph N/A   Overcast
10:13 PM 55.4 °F 42.8 °F 63% 30.00 in 10.0 mi NW 11.5 mph - N/A   Overcast
10:34 PM 53.6 °F 42.8 °F 67% 30.01 in 10.0 mi NW 12.7 mph - N/A   Overcast
10:53 PM 53.6 °F 42.8 °F 67% 30.01 in 10.0 mi NW 10.4 mph - N/A   Overcast
11:13 PM 53.6 °F 44.6 °F 72% 30.01 in 10.0 mi WNW 9.2 mph - N/A   Overcast
11:34 PM 51.8 °F 44.6 °F 76% 30.02 in 10.0 mi NW 8.1 mph - N/A   Scattered Clouds
11:53 PM 51.8 °F 44.6 °F 76% 30.02 in 10.0 mi NW 6.9 mph - N/A   Clear